This is the latest recevied weather packets stored in our database for station/object kj4yre. If no packets are shown the sender has not sent any weather packets the latest 10 day(s).
| Time | Temp. | Humidity | Pressure | Rain* | Wind** | Luminosity | Snow |
|---|---|---|---|---|---|---|---|
| 1778135105 | 20° C | 96% | 1008.5 hPa | 0 mm | - | - | - |
| 1778134808 | 20° C | 95% | 1008.8 hPa | 0 mm | - | - | - |
| 1778132705 | 20° C | 94% | 1010 hPa | 0 mm | - | - | - |
| 1778129105 | 21.11° C | 86% | 1011 hPa | 0 mm | - | - | - |
| 1778123705 | 20° C | 89% | 1010.6 hPa | 0 mm | - | - | - |
| 1778123408 | 20° C | 89% | 1010.4 hPa | 0 mm | - | - | - |
| 1778121607 | 20.56° C | 88% | 1010.8 hPa | 0 mm | - | - | - |
| 1778120705 | 20° C | 89% | 1011 hPa | 0 mm | - | - | - |
| 1778118305 | 19.44° C | 91% | 1010.9 hPa | 0 mm | - | - | - |
| 1778117105 | 19.44° C | 90% | 1011.1 hPa | 0 mm | - | - | - |
| 1778115605 | 20.56° C | 86% | 1011.2 hPa | 0 mm | - | - | - |
| 1778114406 | 20.56° C | 84% | 1011.3 hPa | 0 mm | - | - | - |
| 1778112605 | 21.67° C | 80% | 1011.1 hPa | 0 mm | - | - | - |
| 1778111705 | 21.67° C | 79% | 1010.8 hPa | 0 mm | - | - | - |
| 1778110505 | 22.22° C | 78% | 1011 hPa | 0 mm | - | - | - |
| 1778109904 | 22.22° C | 78% | 1010.9 hPa | 0 mm | - | - | - |
| 1778109306 | 22.22° C | 77% | 1010.9 hPa | 0 mm | - | - | - |
| 1778101505 | 22.78° C | 74% | 1010.9 hPa | 0 mm | - | - | - |
| 1778097905 | 22.22° C | 76% | 1010.2 hPa | 0 mm | - | - | - |
| 1778097006 | 22.22° C | 76% | 1010.6 hPa | 0 mm | - | - | - |
| 1778095504 | 21.11° C | 80% | 1011 hPa | 0 mm | - | - | - |
| 1778094006 | 20.56° C | 84% | 1011.7 hPa | 0 mm | - | - | - |
| 1778093707 | 20.56° C | 84% | 1011.8 hPa | 0 mm | - | - | - |
| 1778089506 | 20.56° C | 81% | 1012.5 hPa | 0 mm | - | - | - |
| 1778088904 | 20.56° C | 82% | 1012.4 hPa | 0 mm | - | - | - |
* Rain latest hour (hover to see other rain measurements)
** Current wind speed in m/s (hover to see current wind gust speed)